sat.trackr.live / text

‹ back to catalog

STARLINK-4616

NORAD 53734 · 2022-107AL

PAYLOAD ACTIVE UNKNOWN

§ Identity

Operator
Country
US
Launch date
2022-09-05
Launch site
AFETR
Launch vehicle
Mass (kg)
RCS (m²)

Purposes: comms

External: N2YO · Heavens-Above · Gunter

§ Orbital elements

Epoch: 2026-09-20T05:15:19.072800Z

Period
93.85 min
Inclination
53.1610°
Eccentricity
0.0001103
Mean motion
15.34388562 rev/d
Perigee alt
462.0 km
Apogee alt
463.5 km
Semi-major
6,840.9 km
B*
1.3348e-5
RAAN
87.3678°
Arg perigee
93.1725°
Mean anomaly
266.9404°
Rev number
22,413

§ Raw data

STARLINK-46161 53734U 22107AL  26263.21897075  .00000075  00000+0  13348-4 0  99962 53734  53.1610  87.3678 0001103  93.1725 266.9404 15.34388562224139

JSON: /api/v1/satellites/53734 · /tle

For live sub-satellite position, see the globe view (requires WebGL).

§ Visibility from observer

Set your observer location to see the next 7 days of passes ≥ 10°. The values pass through the URL so the page stays shareable.

No JS? Fill the form by hand. The geolocation button needs JavaScript.